Regional Weather Roundup
Issued by NWS

Home | Current Version | Previous Version | Text Only | Print | Product List | Glossary On
Versions: 1 2 3 4 5 6 7 8 9 10 11 12 13 14 15 16 17 18 19 20 21 22 23 24 25 26 27 28 29 30 31 32 33 34 35 36 37 38 39 40 41 42 43 44 45 46 47 48 49 50
000
ASUS44 KFWD 041210
RWRTX
NORTH TEXAS HOURLY WEATHER ROUNDUP
NATIONAL WEATHER SERVICE FORT WORTH TX
700 AM CDT WED MAY 04 2016

NOTE: "FAIR" INDICATES FEW OR NO CLOUDS BELOW 12,000 FEET WITH NO
SIGNIFICANT WEATHER AND/OR OBSTRUCTIONS TO VISIBILITY.

TXZ118-119-041300-
DALLAS/FORT WORTH METROPLEX

CITY           SKY/WX    TMP DP  RH WIND       PRES   REMARKS
DFW AIRPORT    CLEAR     58  52  80 W6        30.06R
6HR MIN TEMP:  58; 6HR MAX TEMP:  62;

DALLAS LOVE    CLEAR     57  54  89 NW3       30.06R
6HR MIN TEMP:  57; 6HR MAX TEMP:  64;

FTW MEACHAM    CLEAR     55  52  89 CALM      30.07R
6HR MIN TEMP:  55; 6HR MAX TEMP:  60;

DAL-EXECUTIVE  CLEAR     57  52  83 W8        30.06R
6HR MIN TEMP:  52; 6HR MAX TEMP:  57;

FTW-ALLIANCE   CLEAR     47  46  97 CALM      30.06S
6HR MIN TEMP:  46; 6HR MAX TEMP:  56;

FTW-NAS-JRB    CLEAR     56  52  86 W6        30.07R
6HR MIN TEMP:  55; 6HR MAX TEMP:  60;

FTW-SPINKS     CLEAR     52  48  87 CALM      30.09R
ARLINGTON      CLEAR     54  49  83 CALM      30.07R
6HR MIN TEMP:  53; 6HR MAX TEMP:  59;

GRAND PRAIRIE  CLEAR     59  54  82 CALM      30.08S
MESQUITE       CLEAR     55  52  88 CALM      30.06R
LANCASTER      CLEAR     51  49  90 CALM      30.07R
6HR MIN TEMP:  51; 6HR MAX TEMP:  59;

$$

TXZ091>094-102>105-117-120-121-131>134-041300-
NORTH CENTRAL TEXAS

CITY           SKY/WX    TMP DP  RH WIND       PRES   REMARKS
SHRMAN/DENISON PTCLDY    48  45  88 CALM      30.06R
6HR MIN TEMP:  47; 6HR MAX TEMP:  55;

GAINESVILLE    CLEAR     50  49  95 CALM      30.08R
6HR MIN TEMP:  50; 6HR MAX TEMP:  54;

BOWIE          CLEAR     53  51  95 W8        30.07R
6HR MIN TEMP:  50; 6HR MAX TEMP:  54;

BRIDGEPORT     CLEAR     51  51 100 SW3       30.10R
6HR MIN TEMP:  51; 6HR MAX TEMP:  54;

DECATUR        CLEAR     53  53  99 W7        30.08R
6HR MIN TEMP:  53; 6HR MAX TEMP:  56;

DENTON         CLEAR     50  50 100 SW3       30.07R FOG
6HR MIN TEMP:  49; 6HR MAX TEMP:  54;

MCKINNEY       CLEAR     55  53  93 W5        30.06R
6HR MIN TEMP:  51; 6HR MAX TEMP:  57;

GREENVILLE     CLEAR     54  52  94 CALM      30.05R
TERRELL        CLEAR     54  50  86 CALM      30.06R
6HR MIN TEMP:  52; 6HR MAX TEMP:  60;

WAXAHACHIE     CLEAR     53  53 100 W3        30.08R
6HR MIN TEMP:  52; 6HR MAX TEMP:  56;

CLEBURNE       CLEAR     54  54 100 CALM      30.09S
GRANBURY       CLEAR     49  48  95 CALM      30.10R
6HR MIN TEMP:  49; 6HR MAX TEMP:  56;

$$

TXZ083>090-098>101-113>116-127>130-139>142-154-155-041300-
WESTERN NORTH TEXAS

CITY           SKY/WX    TMP DP  RH WIND       PRES   REMARKS
WICHITA FALLS  CLEAR     53  50  89 W10       30.08R
6HR MIN TEMP:  53; 6HR MAX TEMP:  55;

WF-KICKAPOO    CLEAR     55  52  88 W6        30.09R
6HR MIN TEMP:  55; 6HR MAX TEMP:  58;

ABILENE        CLEAR     50  49  96 CALM      30.14R
6HR MIN TEMP:  50; 6HR MAX TEMP:  55;

ABILENE-DYESS  CLEAR     48  47  98 SW5       30.12R
6HR MIN TEMP:  48; 6HR MAX TEMP:  54;

BRECKENRIDGE   CLEAR     53  52  98 SW5       30.11R
6HR MIN TEMP:  51; 6HR MAX TEMP:  56;

GRAHAM         CLEAR     45  45 100 CALM      30.09R
6HR MIN TEMP:  45; 6HR MAX TEMP:  52;

MINERAL WELLS  CLEAR     50  50 100 W5        30.08R
6HR MIN TEMP:  50; 6HR MAX TEMP:  56;

STEPHENVILLE   CLEAR     56  49  75 CALM      30.12S
6HR MIN TEMP:  53; 6HR MAX TEMP:  56;

COMANCHE       CLEAR     57  52  85 MISG      30.11R
6HR MIN TEMP:  54; 6HR MAX TEMP:  57;

BROWNWOOD      FOG       50  50 100 CALM      30.13R VSB 1/4
COLEMAN        CLEAR     50  49  97 W5        30.14R
6HR MIN TEMP:  50; 6HR MAX TEMP:  57;

$$

TXZ143>147-156>162-174-175-041300-
CENTRAL TEXAS

CITY           SKY/WX    TMP DP  RH WIND       PRES   REMARKS
WACO           CLEAR     51  49  92 SW7       30.09R
6HR MIN TEMP:  50; 6HR MAX TEMP:  59;

WACO-TSTC      CLEAR     50  50 100 CALM      30.09
WACO-MCGREGOR  CLEAR     51  49  92 SW5       30.09R
6HR MIN TEMP:  50; 6HR MAX TEMP:  58;

HILLSBORO      CLEAR     49  49  97 CALM      30.09R
6HR MIN TEMP:  49; 6HR MAX TEMP:  55;

CORSICANA      CLEAR     54  49  83 W8        30.08R
6HR MIN TEMP:  52; 6HR MAX TEMP:  61;

HEARNE         CLEAR     50  49  98 CALM      30.09R
6HR MIN TEMP:  49; 6HR MAX TEMP:  55;

CAMERON        CLEAR     55  51  87 W5        30.10R
6HR MIN TEMP:  53; 6HR MAX TEMP:  57;

TEMPLE         CLEAR     50  49  96 W5        30.10R
6HR MIN TEMP:  50; 6HR MAX TEMP:  59;

KILLEEN        CLEAR     59  49  71 W12       30.09R
6HR MIN TEMP:  53; 6HR MAX TEMP:  61;

KILLEEN-SKYLRK CLEAR     52  50  93 CALM      30.11R
6HR MIN TEMP:  51; 6HR MAX TEMP:  58;

FORT HOOD      CLEAR     54  49  85 NW3       30.08R
6HR MIN TEMP:  53; 6HR MAX TEMP:  61;

GATESVILLE     CLEAR     52  50  93 MISG      30.12R
HAMILTON       CLEAR     53  51  94 W7        30.11R
6HR MIN TEMP:  52; 6HR MAX TEMP:  56;

LAMPASAS       CLEAR     55  51  86 CALM      30.10R
6HR MIN TEMP:  53; 6HR MAX TEMP:  55;

$$

TXZ095>097-106>112-122>126-135>138-148>153-164>167-041300-
EAST TEXAS

CITY           SKY/WX    TMP DP  RH WIND       PRES   REMARKS
PARIS          CLEAR     54  43  66 W5        30.03S
6HR MIN TEMP:  52; 6HR MAX TEMP:  57;

SULPHUR SPRNGS CLEAR     54  50  87 CALM      30.06S
MOUNT PLEASANT CLEAR     51  51 100 CALM      30.05R
6HR MIN TEMP:  50; 6HR MAX TEMP:  58;

GILMER         CLEAR     50  49  95 CALM      30.04R
6HR MIN TEMP:  50; 6HR MAX TEMP:  58;

MINEOLA        CLEAR     55  52  88 W3        30.06R
TYLER          CLEAR     55  49  80 W3        30.05R
6HR MIN TEMP:  52; 6HR MAX TEMP:  61;

LONGVIEW       CLEAR     52  50  93 NW3       30.03R
6HR MIN TEMP:  51; 6HR MAX TEMP:  57;

MARSHALL       CLEAR     50  48  93 CALM      30.04S
6HR MIN TEMP:  50; 6HR MAX TEMP:  55;

ATHENS         CLEAR     48  48 100 CALM      30.05R
PALESTINE      CLEAR     50  49  97 CALM      30.07R
JACKSONVILLE   CLEAR     57  47  69 W5        30.07R
HENDERSON      CLEAR     50  50  98 CALM      30.05S
6HR MIN TEMP:  49; 6HR MAX TEMP:  56; 6HR PCP:  0.01;

CENTER         FAIR      53  51  95 MISG      30.03R
6HR MIN TEMP:  52; 6HR MAX TEMP:  57;

NACOGDOCHES    CLEAR     48  46  93 CALM      30.05R
6HR MIN TEMP:  46; 6HR MAX TEMP:  54;

LUFKIN         CLEAR     52  51  97 CALM      30.05R
6HR MIN TEMP:  51; 6HR MAX TEMP:  56;

$$

SUPPLEMENTAL OBSERVATIONS (CENTRAL)

CITY           SKY/WX    TMP DP  RH WIND       PRES   REMARKS
CADDO GRASSLND   N/A     52  50  93 S2          N/A
MCGREGOR         N/A     50  46  87 SW1         N/A
TEMPLE           N/A     57  50  77 W3          N/A
$$

SUPPLEMENTAL OBSERVATIONS (WEST)

CITY           SKY/WX    TMP DP  RH WIND       PRES   REMARKS
MILLERS CREEK    N/A     48  46  93 SW5         N/A
POSSUM KINGDOM   N/A     52  50  93 SW5         N/A
LBJ GRASSLAND    N/A     52  50  93 W2          N/A
GRANBURY         N/A     48  46  93 W1          N/A
HAMBY            N/A     46  45  93 S1          N/A
$$

SUPPLEMENTAL OBSERVATIONS (EAST)

CITY           SKY/WX    TMP DP  RH WIND       PRES   REMARKS
TEXARKANA        N/A     46  45  93 CALM        N/A
LINDEN           N/A     54  48  82 W3          N/A
LUFKIN           N/A     52  50  93 MISG        N/A
N SABINE NC1F1C2F2C3F3C4F4C5F5C6F6C7F7C8F8C9!


USA.gov is the U.S. government's official web portal to all federal, state and local government web resources and services.